Terminal Aerodrome Forecast
Issued by NWS

Home | Current Version | Previous Version | Text Only | Print | Product List | Glossary On
Versions: 1 2 3 4 5 6 7 8 9 10 11 12 13 14 15 16 17 18 19 20 21 22 23 24 25 26 27 28 29 30 31 32 33 34 35 36 37 38
000
FTUS45 KSLC 302339
TAFBCE
TAF
KBCE 302339Z 3100/3124 15007KT 1SM -SN SCT009 OVC025
     FM310900 32006KT 6SM -SN SCT015 BKN025
     FM311800 34010KT P6SM SCT015 BKN035
      AMD NOT SKED=

USA.gov is the U.S. government's official web portal to all federal, state and local government web resources and services.